YAMAL 202

Last updated on Thu Nov 21 2024 00:02:40 GMT+0000 (Coordinated Universal Time)

1 28089U 03053A 24325.59305001 -.00000078 00000+0 00000+0 0 9991 2 28089 4.8875 77.8695 0006504 162.4365 196.8428 1.00272489 76942
UTC large
Height (km)
Speed (km/s)
/
Latitude / Longitude
Inclination (degrees)
Orbital Period (minutes)
Azimuth
Elevation
Range (km)
Doppler Factor

Next 0 passes for location: London (51.5072 / 0.1276)

Sorry there are no passes over London.